Camp Point, IL

4:49 AM CST on December 04, 2016 (GMT -0600)
Quincy Regional-Baldwin

Weather History for KUIN - March, 2014

Change the Weather History Date:

Saturday, March 29, 2014

  Actual Average Record
Temperature  
Mean Temperature 41 °F 47 °F  
Max Temperature 48 °F 57 °F 85 °F (1986)
Min Temperature 34 °F 37 °F 18 °F (1969)
Degree Days  
Heating Degree Days 24 18  
Month to date heating degree days 854 684  
Since 1 July heating degree days 5748 5026  
Cooling Degree Days 0 0  
Month to date cooling degree days 0 0  
Year to date cooling degree days 0 0  
Moisture  
Dew Point 30 °F    
Average Humidity 66    
Maximum Humidity 82    
Minimum Humidity 50    
Precipitation  
Precipitation 0.00 in 0.09 in 2.25 in (1914)
Month to date precipitation 0.68 2.27  
Year to date precipitation 2.80 5.67  
Sea Level Pressure  
Sea Level Pressure 30.22 in    
Wind  
Wind Speed 9 mph (NNW)    
Max Wind Speed 15 mph    
Max Gust Speed 22 mph    
Visibility 8 miles    
Events      
T = Trace of Precipitation, MM = Missing Value Source: NWS Daily Summary

Daily Weather History Graph

Daily Weather History Graph

Search for Another Location

Airport or City:

Trip Planner

Search our weather history database for the weather conditions in past years. The results will help you decide how hot, cold, wet, or windy it might be!

Date:

Astronomy

Mar. 29, 2014 Rise Set
Actual Time 6:53 AM CDT 7:26 PM CDT
Civil Twilight 6:26 AM CDT 7:53 PM CDT
Nautical Twilight 5:54 AM CDT 8:25 PM CDT
Astronomical Twilight 5:21 AM CDT 8:58 PM CDT
Moon 6:02 AM CDT (3/29) 6:31 PM CDT (3/29)
Length of Visible Light 13h 26m
Length of Day
12h 32m
Waning Crescent, 2% of the Moon is Illuminated
Mar 29
Waning Crescent
Mar 30
New
Apr 7
First Quarter
Apr 15
Full
Apr 22
Last Quarter

Hourly Weather History & Observations

Time (CDT) Temp. Windchill Dew Point Humidity Pressure Visibility Wind Dir Wind Speed Gust Speed Precip Events Conditions
12:54 AM 37.0 °F 31.6 °F 32.0 °F 82% 30.17 in 6.0 mi North 6.9 mph - N/A   Haze
1:54 AM 37.0 °F 30.4 °F 30.9 °F 79% 30.18 in 8.0 mi North 9.2 mph - N/A   Overcast
2:54 AM 37.0 °F 29.8 °F 30.9 °F 79% 30.16 in 8.0 mi NW 10.4 mph - N/A   Overcast
3:54 AM 37.0 °F 28.9 °F 30.9 °F 79% 30.14 in 7.0 mi NNW 12.7 mph - N/A   Overcast
4:54 AM 36.0 °F 29.6 °F 30.9 °F 82% 30.15 in 8.0 mi NNW 8.1 mph - N/A   Overcast
5:54 AM 36.0 °F 28.5 °F 30.9 °F 82% 30.17 in 7.0 mi NNW 10.4 mph - N/A   Overcast
6:54 AM 36.0 °F 28.0 °F 30.9 °F 82% 30.19 in 7.0 mi NNW 11.5 mph - N/A   Overcast
7:54 AM 36.0 °F 28.5 °F 30.9 °F 82% 30.22 in 6.0 mi NNW 10.4 mph - N/A   Haze
8:54 AM 37.0 °F 29.8 °F 30.0 °F 76% 30.24 in 6.0 mi NNW 10.4 mph - N/A   Haze
9:54 AM 37.9 °F 30.5 °F 30.0 °F 73% 30.25 in 6.0 mi NNW 11.5 mph - N/A   Haze
10:54 AM 39.0 °F 33.4 °F 28.9 °F 67% 30.26 in 6.0 mi North 8.1 mph - N/A   Haze
11:54 AM 39.9 °F 32.9 °F 28.9 °F 65% 30.26 in 7.0 mi North 11.5 mph - N/A   Overcast
12:54 PM 41.0 °F 33.9 °F 28.9 °F 62% 30.26 in 8.0 mi NNW 12.7 mph - N/A   Overcast
1:54 PM 42.1 °F 35.7 °F 30.0 °F 62% 30.25 in 9.0 mi NW 11.5 mph - N/A   Overcast
2:54 PM 42.1 °F 35.2 °F 30.0 °F 62% 30.25 in 9.0 mi NW 12.7 mph - N/A   Overcast
3:54 PM 46.0 °F 41.4 °F 32.0 °F 58% 30.24 in 7.0 mi NNW 9.2 mph - N/A   Overcast
4:13 PM 46.0 °F 41.4 °F 30.0 °F 54% 30.22 in 7.0 mi NNW 9.2 mph - N/A   Scattered Clouds
4:54 PM 46.9 °F - 30.0 °F 52% 30.23 in 8.0 mi North 6.9 mph - N/A   Partly Cloudy
5:54 PM 48.0 °F - 30.9 °F 52% 30.24 in 10.0 mi NNW 9.2 mph - N/A   Clear
6:54 PM 45.0 °F 42.6 °F 30.9 °F 58% 30.25 in 10.0 mi NW 4.6 mph - N/A   Clear
7:54 PM 41.0 °F - 30.0 °F 65% 30.25 in 10.0 mi Calm Calm - N/A   Clear
8:54 PM 37.9 °F 33.5 °F 30.0 °F 73% 30.25 in 8.0 mi SE 5.8 mph - N/A   Clear
9:54 PM 36.0 °F 31.1 °F 28.9 °F 76% 30.26 in 7.0 mi SSE 5.8 mph - N/A   Clear
10:54 PM 37.0 °F 33.3 °F 30.0 °F 76% 30.26 in 8.0 mi South 4.6 mph - N/A   Clear
11:54 PM 36.0 °F 32.1 °F 28.0 °F 73% 30.26 in 8.0 mi SSW 4.6 mph - N/A   Clear